| time (UTC) | temp F | wind direction | speed knots | gust knots | rain 1hr in | rain 24hr in | rain mn in | humidity % | barometer mb |
| 20260505064032 | 48 | 160 | 0.0 | 0.9 | 0.00 | 0.16 | 0.00 | 87 | 1011.1 |
| 20260505063514 | 48 | 160 | 0.0 | 0.0 | 0.00 | 0.16 | 0.00 | 86 | 1010.9 |
| 20260505063023 | 48 | 160 | 0.0 | 0.0 | 0.00 | 0.16 | 0.00 | 86 | 1010.8 |
| 20260505062524 | 48 | 160 | 0.0 | 0.0 | 0.00 | 0.16 | 0.00 | 86 | 1010.6 |
| 20260505062032 | 48 | 160 | 0.0 | 0.0 | 0.00 | 0.16 | 0.00 | 86 | 1010.7 |
| 20260505061514 | 48 | 160 | 0.0 | 0.0 | 0.00 | 0.16 | 0.00 | 85 | 1010.8 |
| 20260505061036 | 48 | 160 | 0.0 | 0.0 | 0.00 | 0.16 | 0.00 | 85 | 1010.8 |
| 20260505060524 | 48 | 160 | 0.0 | 0.0 | 0.00 | 0.16 | 0.00 | 85 | 1010.8 |
| 20260505060025 | 48 | 160 | 0.0 | 0.0 | 0.00 | 0.16 | 0.16 | 85 | 1010.7 |
| 20260505055528 | 48 | 160 | 0.0 | 0.0 | 0.00 | 0.16 | 0.16 | 85 | 1010.7 |
| 20260505055028 | 48 | 160 | 0.0 | 0.0 | 0.00 | 0.16 | 0.16 | 85 | 1010.8 |
| 20260505054529 | 48 | 160 | 0.0 | 0.0 | 0.00 | 0.16 | 0.16 | 85 | 1010.8 |
| 20260505054036 | 48 | 160 | 0.0 | 0.0 | 0.01 | 0.16 | 0.16 | 85 | 1010.8 |
| 20260505053537 | 48 | 160 | 0.0 | 0.0 | 0.01 | 0.16 | 0.16 | 85 | 1010.6 |
| 20260505053023 | 48 | 160 | 0.0 | 0.0 | 0.01 | 0.16 | 0.16 | 85 | 1010.4 |
| 20260505052524 | 48 | 160 | 0.0 | 0.0 | 0.01 | 0.16 | 0.16 | 85 | 1010.5 |
| 20260505052025 | 48 | 160 | 0.0 | 0.0 | 0.01 | 0.16 | 0.16 | 85 | 1010.5 |
| 20260505051534 | 48 | 160 | 0.0 | 0.0 | 0.01 | 0.16 | 0.16 | 85 | 1010.5 |
| 20260505051015 | 48 | 160 | 0.0 | 0.0 | 0.01 | 0.16 | 0.16 | 85 | 1010.4 |
| 20260505050523 | 48 | 160 | 0.0 | 0.0 | 0.01 | 0.16 | 0.16 | 85 | 1010.4 |
| 20260505041516 | 49 | 160 | 0.0 | 1.7 | 0.00 | 0.15 | 0.15 | 83 | 1010.7 |
| 20260505041024 | 49 | 160 | 0.0 | 1.7 | 0.00 | 0.15 | 0.15 | 83 | 1010.6 |
| 20260505040525 | 49 | 155 | 0.0 | 0.9 | 0.01 | 0.15 | 0.15 | 84 | 1010.7 |
| 20260505040033 | 49 | 261 | 0.0 | 0.9 | 0.01 | 0.15 | 0.15 | 84 | 1010.6 |
| 20260505035514 | 50 | 261 | 0.0 | 0.9 | 0.01 | 0.15 | 0.15 | 84 | 1010.5 |
| 20260505035016 | 50 | 261 | 0.0 | 0.0 | 0.01 | 0.15 | 0.15 | 84 | 1010.5 |
| 20260505034524 | 50 | 261 | 0.0 | 0.0 | 0.01 | 0.15 | 0.15 | 84 | 1010.5 |
| 20260505034025 | 50 | 261 | 0.0 | 0.0 | 0.01 | 0.15 | 0.15 | 84 | 1010.5 |
| 20260505033526 | 50 | 261 | 0.0 | 0.0 | 0.01 | 0.15 | 0.15 | 84 | 1010.6 |
| 20260505033034 | 50 | 261 | 0.0 | 0.9 | 0.01 | 0.15 | 0.15 | 84 | 1010.6 |
| 20260505032513 | 50 | 261 | 0.0 | 0.9 | 0.01 | 0.15 | 0.15 | 84 | 1010.5 |
| 20260505032041 | 50 | 261 | 0.0 | 0.9 | 0.01 | 0.15 | 0.15 | 83 | 1010.4 |
| 20260505031522 | 51 | 261 | 0.0 | 1.7 | 0.02 | 0.15 | 0.15 | 84 | 1010.3 |
| 20260505031030 | 51 | 261 | 0.0 | 1.7 | 0.02 | 0.15 | 0.15 | 83 | 1010.4 |
| 20260505030559 | 51 | 261 | 0.0 | 0.9 | 0.01 | 0.14 | 0.14 | 84 | 1010.3 |
| 20260505030018 | 51 | 261 | 0.0 | 2.6 | 0.01 | 0.14 | 0.14 | 83 | 1010.2 |
| 20260505025520 | 51 | 261 | 0.0 | 2.6 | 0.01 | 0.14 | 0.14 | 83 | 1010.2 |
| 20260505025020 | 51 | 261 | 0.0 | 1.7 | 0.01 | 0.14 | 0.14 | 82 | 1010.1 |
| 20260505024549 | 51 | 261 | 0.0 | 1.7 | 0.01 | 0.14 | 0.14 | 81 | 1010.1 |
| 20260505024037 | 52 | 261 | 0.0 | 0.9 | 0.02 | 0.14 | 0.14 | 80 | 1010.0 |
| 20260505023519 | 52 | 261 | 0.0 | 0.0 | 0.02 | 0.14 | 0.14 | 78 | 1010.0 |
| 20260505023020 | 52 | 261 | 0.0 | 0.0 | 0.02 | 0.14 | 0.14 | 77 | 1009.9 |
| 20260505022521 | 52 | 261 | 0.0 | 0.0 | 0.02 | 0.14 | 0.14 | 76 | 1009.8 |
| 20260505022029 | 52 | 261 | 0.0 | 0.9 | 0.02 | 0.14 | 0.14 | 74 | 1009.8 |
| 20260505021531 | 52 | 261 | 0.0 | 1.7 | 0.01 | 0.13 | 0.13 | 72 | 1009.6 |
| 20260505021039 | 52 | 261 | 0.9 | 2.6 | 0.02 | 0.13 | 0.13 | 72 | 1009.6 |
| 20260505020540 | 52 | 261 | 1.7 | 3.5 | 0.02 | 0.13 | 0.13 | 72 | 1009.6 |
| 20260505020027 | 52 | 261 | 0.0 | 5.2 | 0.02 | 0.13 | 0.13 | 72 | 1009.6 |
| 20260505015528 | 52 | 261 | 1.7 | 5.2 | 0.03 | 0.13 | 0.13 | 73 | 1009.6 |
| 20260505015030 | 53 | 260 | 1.7 | 4.3 | 0.03 | 0.13 | 0.13 | 73 | 1009.6 |
| 20260505014539 | 53 | 287 | 0.9 | 3.5 | 0.03 | 0.13 | 0.13 | 72 | 1009.6 |
| 20260505014020 | 53 | 298 | 0.9 | 3.5 | 0.02 | 0.12 | 0.12 | 72 | 1009.5 |
| 20260505013522 | 53 | 319 | 1.7 | 4.3 | 0.03 | 0.12 | 0.12 | 71 | 1009.4 |
| 20260505013030 | 53 | 255 | 1.7 | 4.3 | 0.03 | 0.12 | 0.12 | 70 | 1009.4 |
| 20260505012531 | 54 | 265 | 1.7 | 4.3 | 0.03 | 0.12 | 0.12 | 70 | 1009.4 |
| 20260505012013 | 54 | 343 | 1.7 | 4.3 | 0.04 | 0.12 | 0.12 | 69 | 1009.4 |
| 20260505011522 | 54 | 300 | 1.7 | 4.3 | 0.04 | 0.12 | 0.12 | 68 | 1009.4 |
| 20260505011023 | 55 | 292 | 1.7 | 4.3 | 0.04 | 0.11 | 0.11 | 68 | 1009.4 |
| 20260505010520 | 55 | 269 | 1.7 | 7.0 | 0.04 | 0.11 | 0.11 | 67 | 1009.4 |
| 20260505010028 | 55 | 277 | 2.6 | 7.8 | 0.05 | 0.11 | 0.11 | 65 | 1009.4 |
| 20260505005514 | 56 | 339 | 3.5 | 8.7 | 0.04 | 0.10 | 0.10 | 63 | 1009.4 |
| 20260505005015 | 56 | 5 | 2.6 | 8.7 | 0.04 | 0.10 | 0.10 | 63 | 1009.4 |
| 20260505004524 | 57 | 327 | 3.5 | 7.0 | 0.05 | 0.10 | 0.10 | 63 | 1009.2 |
| 20260505004024 | 57 | 339 | 0.9 | 4.3 | 0.05 | 0.10 | 0.10 | 65 | 1009.1 |
| 20260505003534 | 57 | 333 | 0.0 | 3.5 | 0.04 | 0.09 | 0.09 | 66 | 1009.0 |
| 20260505003013 | 57 | 333 | 0.0 | 3.5 | 0.04 | 0.09 | 0.09 | 66 | 1009.0 |
| 20260505002517 | 57 | 336 | 0.9 | 3.5 | 0.03 | 0.08 | 0.08 | 68 | 1009.0 |
| 20260505002038 | 57 | 302 | 0.9 | 1.7 | 0.03 | 0.08 | 0.08 | 68 | 1008.9 |
| 20260505001524 | 57 | 278 | 0.0 | 1.7 | 0.04 | 0.08 | 0.08 | 68 | 1008.8 |
| 20260505001024 | 57 | 265 | 0.0 | 0.9 | 0.03 | 0.07 | 0.07 | 69 | 1008.7 |
| 20260505000532 | 57 | 265 | 0.0 | 0.0 | 0.03 | 0.07 | 0.07 | 70 | 1008.6 |
| 20260505000014 | 57 | 265 | 0.0 | 0.0 | 0.02 | 0.06 | 0.06 | 69 | 1008.5 |
| 20260504235515 | 57 | 265 | 0.0 | 0.0 | 0.02 | 0.06 | 0.06 | 70 | 1008.6 |
| 20260504235016 | 57 | 265 | 0.0 | 0.0 | 0.01 | 0.05 | 0.05 | 71 | 1008.8 |
| 20260504234525 | 57 | 265 | 0.0 | 0.0 | 0.01 | 0.05 | 0.05 | 71 | 1008.6 |
| 20260504234027 | 57 | 265 | 0.0 | 0.0 | 0.01 | 0.05 | 0.05 | 71 | 1008.7 |
| 20260504233534 | 57 | 265 | 0.0 | 0.0 | 0.01 | 0.05 | 0.05 | 68 | 1008.7 |
| 20260504233019 | 57 | 265 | 0.0 | 0.9 | 0.02 | 0.05 | 0.05 | 69 | 1008.7 |
| 20260504232520 | 58 | 265 | 0.0 | 0.0 | 0.02 | 0.05 | 0.05 | 67 | 1008.6 |
| 20260504232028 | 58 | 265 | 0.0 | 0.0 | 0.02 | 0.05 | 0.05 | 67 | 1008.5 |
| 20260504231529 | 58 | 265 | 0.0 | 1.7 | 0.01 | 0.04 | 0.04 | 67 | 1008.5 |
| 20260504231030 | 58 | 265 | 0.0 | 1.7 | 0.01 | 0.04 | 0.04 | 64 | 1008.6 |
| 20260504230539 | 58 | 232 | 0.0 | 7.8 | 0.01 | 0.04 | 0.04 | 58 | 1008.4 |
| 20260504230020 | 59 | 272 | 0.9 | 5.2 | 0.01 | 0.04 | 0.04 | 63 | 1008.8 |
| 20260504225522 | 59 | 286 | 1.7 | 5.2 | 0.01 | 0.04 | 0.04 | 56 | 1008.7 |
| 20260504225030 | 60 | 271 | 2.6 | 5.2 | 0.01 | 0.04 | 0.04 | 56 | 1008.6 |
| 20260504224551 | 60 | 198 | 0.0 | 1.7 | 0.01 | 0.04 | 0.04 | 53 | 1008.5 |
| 20260504224019 | 60 | 198 | 0.0 | 1.7 | 0.01 | 0.04 | 0.04 | 59 | 1008.4 |
| 20260504223520 | 60 | 148 | 0.0 | 0.9 | 0.01 | 0.04 | 0.04 | 59 | 1008.5 |
| 20260504223022 | 60 | 117 | 0.0 | 0.9 | 0.00 | 0.03 | 0.03 | 59 | 1008.3 |
| 20260504222529 | 60 | 115 | 0.0 | 0.0 | 0.01 | 0.03 | 0.03 | 59 | 1008.1 |
| 20260504222037 | 60 | 115 | 0.0 | 0.0 | 0.01 | 0.03 | 0.03 | 60 | 1007.9 |
| 20260504221518 | 60 | 115 | 0.0 | 0.0 | 0.01 | 0.03 | 0.03 | 59 | 1007.7 |
| 20260504221019 | 60 | 115 | 0.0 | 0.9 | 0.01 | 0.03 | 0.03 | 59 | 1007.5 |
| 20260504220548 | 60 | 115 | 0.0 | 2.6 | 0.01 | 0.03 | 0.03 | 59 | 1007.3 |
| 20260504220044 | 59 | 115 | 0.0 | 2.6 | 0.01 | 0.03 | 0.03 | 58 | 1007.1 |
| 20260504215516 | 59 | 26 | 0.0 | 1.7 | 0.01 | 0.03 | 0.03 | 59 | 1006.9 |
| 20260504215017 | 59 | 355 | 0.0 | 2.6 | 0.02 | 0.03 | 0.03 | 58 | 1006.9 |
| 20260504214542 | 59 | 355 | 0.0 | 4.3 | 0.02 | 0.03 | 0.03 | 57 | 1007.0 |
| 20260504214042 | 58 | 294 | 0.9 | 6.1 | 0.02 | 0.03 | 0.03 | 58 | 1007.1 |
| 20260504213530 | 58 | 346 | 1.7 | 6.1 | 0.02 | 0.03 | 0.03 | 60 | 1007.4 |
| 20260504213057 | 57 | 325 | 0.9 | 4.3 | 0.03 | 0.03 | 0.03 | 61 | 1007.4 |
| 20260504212515 | 57 | 259 | 0.9 | 7.8 | 0.02 | 0.02 | 0.02 | 61 | 1007.6 |
| 20260504212016 | 57 | 326 | 0.9 | 7.8 | 0.02 | 0.02 | 0.02 | 60 | 1008.0 |
| 20260504211523 | 57 | 327 | 2.6 | 10.4 | 0.02 | 0.02 | 0.02 | 62 | 1008.4 |
| 20260504211024 | 57 | 335 | 3.5 | 10.4 | 0.02 | 0.02 | 0.02 | 63 | 1008.8 |
| 20260504210532 | 57 | 340 | 0.0 | 0.9 | 0.02 | 0.02 | 0.02 | 64 | 1008.6 |
| 20260504210013 | 58 | 339 | 0.0 | 5.2 | 0.02 | 0.02 | 0.02 | 61 | 1008.8 |
| 20260504205514 | 58 | 339 | 0.0 | 7.8 | 0.02 | 0.02 | 0.02 | 57 | 1008.8 |
| 20260504205024 | 60 | 300 | 1.7 | 7.8 | 0.01 | 0.01 | 0.01 | 56 | 1008.6 |
| 20260504204524 | 61 | 331 | 0.9 | 13.0 | 0.01 | 0.01 | 0.01 | 56 | 1008.6 |
| 20260504204026 | 63 | 319 | 1.7 | 13.0 | 0.01 | 0.01 | 0.01 | 52 | 1008.3 |
| 20260504203535 | 66 | 324 | 2.6 | 13.0 | 0.01 | 0.01 | 0.01 | 41 | 1008.2 |
| 20260504203016 | 68 | 13 | 2.6 | 13.0 | 0.00 | 0.00 | 0.00 | 32 | 1007.8 |
| 20260504202517 | 70 | 323 | 1.7 | 7.8 | 0.00 | 0.00 | 0.00 | 30 | 1007.6 |
| 20260504202026 | 71 | 67 | 3.5 | 8.7 | 0.00 | 0.00 | 0.00 | 25 | 1007.0 |
| 20260504201548 | 73 | 306 | 3.5 | 8.7 | 0.00 | 0.00 | 0.00 | 22 | 1006.9 |
| 20260504201034 | 74 | 326 | 0.9 | 4.3 | 0.00 | 0.00 | 0.00 | 21 | 1006.5 |
| 20260504200515 | 75 | 317 | 0.9 | 6.1 | 0.00 | 0.00 | 0.00 | 21 | 1006.5 |
| 20260504200016 | 75 | 317 | 0.9 | 6.1 | 0.00 | 0.00 | 0.00 | 20 | 1006.5 |
| 20260504195525 | 76 | 334 | 0.9 | 6.1 | 0.00 | 0.00 | 0.00 | 21 | 1006.5 |
| 20260504195025 | 76 | 341 | 2.6 | 6.1 | 0.00 | 0.00 | 0.00 | 20 | 1006.5 |
| 20260504194514 | 76 | 298 | 2.6 | 6.1 | 0.00 | 0.00 | 0.00 | 22 | 1006.4 |
| 20260504194035 | 75 | 303 | 1.7 | 7.0 | 0.00 | 0.00 | 0.00 | 22 | 1006.5 |
| 20260504193523 | 75 | 336 | 1.7 | 11.3 | 0.00 | 0.00 | 0.00 | 21 | 1006.6 |
| 20260504193024 | 75 | 338 | 2.6 | 11.3 | 0.00 | 0.00 | 0.00 | 22 | 1006.6 |
| 20260504192532 | 75 | 329 | 3.5 | 9.6 | 0.00 | 0.00 | 0.00 | 22 | 1006.5 |
| 20260504192032 | 76 | 271 | 3.5 | 7.0 | 0.00 | 0.00 | 0.00 | 21 | 1006.6 |
| 20260504191600 | 75 | 263 | 4.3 | 7.0 | 0.00 | 0.00 | 0.00 | 21 | 1006.6 |
| 20260504191021 | 75 | 254 | 3.5 | 6.1 | 0.00 | 0.00 | 0.00 | 22 | 1006.6 |
| 20260504190523 | 75 | 272 | 3.5 | 7.0 | 0.00 | 0.00 | 0.00 | 22 | 1006.6 |
| 20260504190032 | 75 | 253 | 4.3 | 7.0 | 0.00 | 0.00 | 0.00 | 21 | 1006.6 |
| 20260504185532 | 74 | 241 | 2.6 | 6.1 | 0.00 | 0.00 | 0.00 | 23 | 1006.6 |
| 20260504185032 | 73 | 252 | 2.6 | 7.8 | 0.00 | 0.00 | 0.00 | 24 | 1006.7 |
| 20260504184513 | 73 | 256 | 4.3 | 7.8 | 0.00 | 0.00 | 0.00 | 23 | 1006.7 |
| 20260504184041 | 73 | 259 | 2.6 | 6.1 | 0.00 | 0.00 | 0.00 | 21 | 1006.8 |
| 20260504183528 | 72 | 246 | 4.3 | 6.1 | 0.00 | 0.00 | 0.00 | 23 | 1006.8 |
| 20260504183030 | 72 | 304 | 4.3 | 10.4 | 0.00 | 0.00 | 0.00 | 24 | 1006.9 |
| 20260504182537 | 72 | 250 | 4.3 | 10.4 | 0.00 | 0.00 | 0.00 | 23 | 1007.0 |
| 20260504182039 | 71 | 248 | 4.3 | 9.6 | 0.00 | 0.00 | 0.00 | 25 | 1007.0 |
| 20260504181525 | 71 | 253 | 4.3 | 9.6 | 0.00 | 0.00 | 0.00 | 25 | 1007.1 |
| 20260504181025 | 70 | 251 | 3.5 | 7.8 | 0.00 | 0.00 | 0.00 | 26 | 1007.4 |
| 20260504180552 | 70 | 236 | 3.5 | 8.7 | 0.00 | 0.00 | 0.00 | 26 | 1007.5 |
| 20260504180032 | 70 | 270 | 5.2 | 9.6 | 0.00 | 0.00 | 0.00 | 25 | 1007.5 |
| 20260504175518 | 70 | 204 | 6.1 | 9.6 | 0.00 | 0.00 | 0.00 | 26 | 1007.6 |
| 20260504175039 | 70 | 213 | 5.2 | 11.3 | 0.00 | 0.00 | 0.00 | 27 | 1007.7 |
| 20260504174526 | 69 | 250 | 5.2 | 11.3 | 0.00 | 0.00 | 0.00 | 28 | 1007.7 |
| 20260504174028 | 69 | 259 | 6.1 | 8.7 | 0.00 | 0.00 | 0.00 | 27 | 1007.7 |
| 20260504173514 | 68 | 258 | 6.1 | 9.6 | 0.00 | 0.00 | 0.00 | 28 | 1007.8 |
| 20260504173035 | 68 | 261 | 3.5 | 7.8 | 0.00 | 0.00 | 0.00 | 28 | 1008.1 |
| 20260504172542 | 67 | 264 | 1.7 | 5.2 | 0.00 | 0.00 | 0.00 | 29 | 1008.0 |
| 20260504172029 | 67 | 250 | 0.9 | 3.5 | 0.00 | 0.00 | 0.00 | 28 | 1008.1 |
| 20260504171530 | 67 | 268 | 0.9 | 4.3 | 0.00 | 0.00 | 0.00 | 29 | 1008.2 |
| 20260504171031 | 66 | 271 | 1.7 | 5.2 | 0.00 | 0.00 | 0.00 | 30 | 1008.2 |
| 20260504170513 | 66 | 265 | 1.7 | 5.2 | 0.00 | 0.00 | 0.00 | 30 | 1008.2 |
| 20260504151025 | 64 | 244 | 4.3 | 6.1 | 0.00 | 0.00 | 0.00 | 31 | 1008.5 |
| 20260504150532 | 64 | 234 | 3.5 | 7.0 | 0.00 | 0.00 | 0.00 | 31 | 1008.5 |
| 20260504141029 | 48 | 333 | 0.0 | 0.0 | 0.00 | 0.00 | 0.00 | 63 | 1008.4 |
| 20260504140536 | 47 | 333 | 0.0 | 0.0 | 0.00 | 0.00 | 0.00 | 63 | 1008.4 |
| 20260504130521 | 40 | 333 | 0.0 | 0.0 | 0.00 | 0.00 | 0.00 | 63 | 1008.6 |
| 20260504110532 | 39 | 333 | 0.0 | 0.0 | 0.00 | 0.00 | 0.00 | 61 | 1008.6 |
| 20260504100512 | 40 | 333 | 0.0 | 0.9 | 0.00 | 0.00 | 0.00 | 58 | 1008.9 |
| 20260504081514 | 45 | 333 | 0.0 | 0.0 | 0.00 | 0.00 | 0.00 | 50 | 1009.5 |
| 20260504081022 | 45 | 333 | 0.0 | 0.9 | 0.00 | 0.00 | 0.00 | 50 | 1009.6 |
| 20260504080524 | 45 | 333 | 0.0 | 0.9 | 0.00 | 0.00 | 0.00 | 51 | 1009.7 |